Visibility
0.2 0.1 0.1 0.1 0.2 1.2 1.0 0.4 4.4 15.0 3.2 15.0 15.0 12.8 15.0 15.0 3.8 4.9 5.8 15.0 15.0 4.6
0.4 0.2 0.1 0.1 0.2 0.3 1.9 0.5 2.1 11.8 14.5 4.1 14.4 15.0 15.0 7.9 11.8 15.0 8.7 14.9 10.9 15.0
0.6 0.2 0.2 0.1 0.1 0.1 0.3 1.0 0.4 3.7 4.4 0.5 12.1 15.0 15.0 6.5 12.0 7.1 13.9 12.8 15.0 15.0
7.1 1.2 0.2 0.3 0.2 0.1 0.1 0.1 0.5 0.8 6.3 1.7 0.9 13.7 15.0 4.8 9.1 11.2 15.0 3.5 15.0 12.7
14.2 9.5 1.1 0.4 0.3 0.2 0.1 0.1 0.4 0.5 2.9 4.8 1.5 15.0 15.0 0.4 14.9 14.9 14.9 15.0 14.7 15.0
15.0 6.4 3.9 0.5 0.4 0.2 0.1 0.1 0.1 0.1 0.3 4.2 0.8 2.3 8.6 7.5 15.0 15.0 15.0 15.0 15.0 15.0
13.2 6.2 3.1 1.5 0.3 0.2 0.1 0.2 0.1 0.1 0.1 0.4 1.6 3.9 5.4 7.3 3.8 15.0 12.5 15.0 15.0 9.1
15.0 14.6 11.4 6.9 4.9 0.4 0.2 0.7 0.5 0.1 0.1 0.1 1.3 2.8 0.4 1.3 3.0 15.0 15.0 15.0 15.0 15.0
15.0 13.2 11.2 6.3 3.5 10.8 2.0 1.7 0.4 0.1 0.1 0.0 0.2 5.1 3.4 7.0 0.2 0.5 0.3 0.2 15.0 14.9
15.0 9.2 9.9 7.1 2.8 6.6 3.4 3.0 1.0 0.1 0.1 0.0 0.0 4.8 3.8 3.5 1.5 0.7 12.6 15.0 15.0 7.4
15.0 11.1 10.8 8.6 8.2 3.3 3.3 3.9 0.3 0.3 0.2 0.0 0.0 0.1 6.5 10.4 0.2 0.2 11.2 15.0 15.0 15.0
15.0 6.5 6.2 1.9 0.9 1.2 1.0 5.6 0.4 0.1 0.2 0.1 0.0 0.0 0.4 0.3 0.0 4.9 11.5 15.0 15.0 14.7
15.0 5.2 2.0 0.6 0.2 0.1 0.1 0.3 0.1 0.1 0.1 0.1 0.0 0.0 0.1 0.1 0.0 0.0 0.5 6.3 15.0 15.0
15.0 6.0 1.3 1.2 0.2 0.1 0.1 0.2 0.3 0.1 0.1 0.1 0.1 0.0 0.0 0.0 0.0 0.0 0.0 0.0 1.0 12.8